WB5MTX Weather Reports


Display with metric or nautical units.
time (UTC)temp
F
wind
direction
speed
MPH
gust
MPH
rain 1hr
in
rain 24hr
in
rain mn
in
humidity
%
barometer
mb
20260505010052 76 0 1.0 11.0 0.00 0.00 0.00 69 1005.3
20260505004557 76 144 2.0 9.0 0.00 0.00 0.00 68 1005.5
20260505003051 77 0 1.0 9.0 0.00 0.00 0.00 67 1005.5
20260505001554 77 0 0.0 9.0 0.00 0.00 0.00 67 1005.6
20260505000113 78 160 2.0 10.0 0.00 0.00 0.00 65 1005.9
20260504234554 79 190 2.0 12.0 0.00 0.00 0.00 62 1005.9
20260504233055 79 223 3.0 18.0 0.00 0.00 0.00 61 1006.0
20260504231553 80 223 2.0 12.0 0.00 0.00 0.00 61 1006.1
20260504230105 80 225 2.0 11.0 0.00 0.00 0.00 60 1006.1
20260504224552 80 120 2.0 15.0 0.00 0.00 0.00 59 1006.5
20260504223056 81 153 2.0 14.0 0.00 0.00 0.00 58 1006.4
20260504221603 81 118 3.0 17.0 0.00 0.00 0.00 58 1006.6
20260504220059 81 142 2.0 12.0 0.00 0.00 0.00 58 1006.6
20260504214558 81 219 3.0 16.0 0.00 0.00 0.00 57 1006.8
20260504213105 81 176 4.0 17.0 0.00 0.00 0.00 57 1007.0
20260504211553 82 173 4.0 20.0 0.00 0.00 0.00 56 1007.1
20260504210055 83 114 3.0 15.0 0.00 0.00 0.00 56 1007.4
20260504204600 83 217 4.0 19.0 0.00 0.00 0.00 55 1007.7
20260504203101 83 196 1.0 15.0 0.00 0.00 0.00 57 1007.9
20260504201554 83 149 4.0 17.0 0.00 0.00 0.00 54 1008.3
20260504200056 82 185 2.0 15.0 0.00 0.00 0.00 57 1008.7
20260504194553 81 150 4.0 16.0 0.00 0.00 0.00 55 1008.9
20260504193054 81 92 4.0 15.0 0.00 0.00 0.00 56 1009.1
20260504191604 81 123 3.0 13.0 0.00 0.00 0.00 57 1009.5
20260504184555 80 194 4.0 12.0 0.00 0.00 0.00 59 1009.8
20260504183059 79 0 4.0 21.0 0.00 0.00 0.00 58 1009.9
20260504181603 79 172 5.0 13.0 0.00 0.00 0.00 58 1010.2
20260504180114 78 205 5.0 13.0 0.00 0.00 0.00 60 1010.5
20260504174556 78 115 3.0 19.0 0.00 0.00 0.00 59 1010.7
20260504173055 77 144 4.0 14.0 0.00 0.00 0.00 60 1010.9
20260504171555 76 215 3.0 20.0 0.00 0.00 0.00 61 1010.9
20260504140104 66 227 6.0 20.0 0.00 0.00 0.00 73 1012.5
20260504081555 59 0 0.0 5.0 0.00 0.00 0.00 74 1013.7
20260504080111 59 0 0.0 6.0 0.00 0.00 0.00 74 1013.8
20260504050107 62 0 0.0 4.0 0.00 0.00 0.00 68 1015.5
20260504044600 63 0 0.0 2.0 0.00 0.00 0.00 67 1015.6
20260504043059 63 0 0.0 4.0 0.00 0.00 0.00 65 1015.7
20260504041555 64 0 0.0 4.0 0.00 0.00 0.00 64 1015.9
20260504034557 65 205 0.0 5.0 0.00 0.00 0.00 61 1015.9
20260504033054 65 225 0.0 5.0 0.00 0.00 0.00 60 1015.7
20260504031603 66 0 0.0 6.0 0.00 0.00 0.00 59 1015.8
20260504030055 67 0 0.0 5.0 0.00 0.00 0.00 57 1015.8
20260504024614 67 0 0.0 4.0 0.00 0.00 0.00 56 1015.5
20260504023054 68 0 0.0 5.0 0.00 0.00 0.00 55 1015.4
20260504021559 68 0 0.0 5.0 0.00 0.00 0.00 53 1015.4
20260504020057 69 0 0.0 3.0 0.00 0.00 0.00 51 1015.3
20260504014606 70 167 0.0 4.0 0.00 0.00 0.00 50 1015.5
20260504013055 71 202 0.0 4.0 0.00 0.00 0.00 48 1015.4
20260504011554 72 0 0.0 7.0 0.00 0.00 0.00 46 1015.1